This is the latest recevied weather packets stored in our database for station/object AC0MR. If no packets are shown the sender has not sent any weather packets the latest 10 day(s).
| Time | Temp. | Humidity | Pressure | Rain* | Wind** | Luminosity | Snow |
|---|---|---|---|---|---|---|---|
| 1777221919 | 18.89° C | 67% | 1015 hPa | 0 mm | - | 828 W/m² | - |
| 1777221319 | 18.33° C | 68% | 1015.1 hPa | 0 mm | - | 805 W/m² | - |
| 1777220719 | 17.78° C | 69% | 1015.2 hPa | 0 mm | - | 762 W/m² | - |
| 1777220119 | 17.78° C | 69% | 1015.2 hPa | 0 mm | - | 739 W/m² | - |
| 1777219519 | 17.22° C | 72% | 1015.3 hPa | 0 mm | - | 760 W/m² | - |
| 1777218919 | 16.67° C | 71% | 1015.5 hPa | 0 mm | - | 736 W/m² | - |
| 1777218319 | 16.11° C | 72% | 1015.6 hPa | 0 mm | - | 723 W/m² | - |
| 1777217719 | 16.11° C | 71% | 1015.7 hPa | 0 mm | - | 692 W/m² | - |
| 1777217119 | 16.11° C | 73% | 1015.6 hPa | 0 mm | - | 668 W/m² | - |
| 1777216519 | 16.11° C | 74% | 1015.6 hPa | 0 mm | - | 610 W/m² | - |
| 1777215919 | 15.56° C | 75% | 1015.6 hPa | 0 mm | - | 623 W/m² | - |
| 1777215319 | 15° C | 75% | 1015.6 hPa | 0 mm | - | 601 W/m² | - |
| 1777214719 | 15° C | 77% | 1015.5 hPa | 0 mm | - | 577 W/m² | - |
| 1777214119 | 14.44° C | 78% | 1015.6 hPa | 0 mm | - | 546 W/m² | - |
| 1777213518 | 13.89° C | 78% | 1015.6 hPa | 0 mm | - | 482 W/m² | - |
| 1777212919 | 13.33° C | 80% | 1015.5 hPa | 0 mm | - | 371 W/m² | - |
| 1777212319 | 12.22° C | 81% | 1015.4 hPa | 0 mm | - | 344 W/m² | - |
| 1777211719 | 11.67° C | 81% | 1015.6 hPa | 0 mm | - | 321 W/m² | - |
| 1777211119 | 11.11° C | 82% | 1015.6 hPa | 0 mm | - | 247 W/m² | - |
| 1777210519 | 11.11° C | 84% | 1015.6 hPa | 0 mm | - | 200 W/m² | - |
| 1777209919 | 10° C | 84% | 1015.7 hPa | 0 mm | - | 261 W/m² | - |
| 1777209319 | 10° C | 84% | 1015.6 hPa | 0 mm | - | 158 W/m² | - |
| 1777208718 | 9.44° C | 85% | 1015.7 hPa | 0 mm | - | 154 W/m² | - |
| 1777208118 | 9.44° C | 85% | 1015.7 hPa | 0 mm | - | 148 W/m² | - |
| 1777207518 | 8.89° C | 85% | 1015.7 hPa | 0 mm | - | 134 W/m² | - |
* Rain latest hour (hover to see other rain measurements)
** Current wind speed in m/s (hover to see current wind gust speed)